Regional Weather Roundup
Issued by NWS

Home | Current Version | Previous Version | Text Only | Print | Product List | Glossary Off
Versions: 1 2 3 4 5 6 7 8 9 10 11 12 13 14 15 16 17 18 19 20 21 22 23 24 25 26 27 28 29 30 31 32 33 34 35 36 37 38 39 40 41 42 43 44 45 46 47 48 49 50

378
ASUS45 KBOU 240210
RWRCO

WEATHER ROUNDUP FOR COLORADO
NATIONAL WEATHER SERVICE DENVER/BOULDER CO
700 PM MST THU NOV 23 2017

NOTE: "FAIR" INDICATES FEW OR NO CLOUDS BELOW 12000 FEET WITH NO
SIGNIFICANT WEATHER AND/OR OBSTRUCTIONS TO VISIBILITY.

COZ001>005-013-030-031-240300-
...NORTHWEST COLORADO...

CITY           SKY/WX    TMP DP  RH WIND       PRES   REMARKS
CRAIG          FAIR      39  32  76 SE3       30.17F
HAYDEN         FAIR      44  35  70 E3        30.19F
MEEKER         FAIR      43  33  68 CALM      30.19S
RABBIT EARS PA FAIR      32  32 100 W9G18     30.32S WCI  24
STEAMBOAT SPGS FAIR      40  34  80 NE3       30.20S
WALDEN         FAIR      46  27  46 SW20G33   30.21F
$$

COZ006>008-011-240300-
...WEST CENTRAL VALLEYS...

CITY           SKY/WX    TMP DP  RH WIND       PRES   REMARKS
GRAND JUNCTION FAIR      43  31  62 E3        30.18F
MONTROSE       FAIR      43  32  65 SE6       30.24R
EAGLE          FAIR      40  32  73 E8        30.25S
RIFLE          FAIR      42  35  76 SE3       30.21S
DELTA          FAIR      49  32  52 CALM      30.20S
NUCLA          FAIR      46  30  53 E9        30.25S
$$

COZ017>023-064>068-240300-
...SOUTHWEST COLORADO...

CITY           SKY/WX    TMP DP  RH WIND       PRES   REMARKS
DURANGO        FAIR      43  27  53 N7        30.25S
CORTEZ         FAIR      39  28  64 E10       30.23S
PAGOSA SPRINGS FAIR      39  24  56 CALM      30.30F
TELLURIDE      FAIR      45  15  31 SE6       30.38S
WOLF CREEK PAS FAIR      36  21  55 SW3       30.52F
$$

COZ009-010-012-014-032>034-037-058>063-240300-
...CENTRAL COLORADO...

CITY           SKY/WX    TMP DP  RH WIND       PRES   REMARKS
ASPEN          FAIR      36  28  73 SW9       30.27F
BUENA VISTA    FAIR      42  21  42 E3        30.22F
COPPER MTN     NOT AVBL
BERTHOUD PASS  FAIR      30  19  64 NW44G53   30.34F WCI  13
COTTONWOOD PAS FAIR      52  16  24 W13G21    30.31F
GUNNISON       FAIR      37  30  75 CALM      30.29S
KREMMLING      FAIR      39  32  75 CALM      30.24S
LEADVILLE      NOT AVBL
MONARCH PASS   FAIR      32  25  74 W33       30.51F WCI  17
SALIDA         FAIR      52  23  33 N7        30.29S
SUNLIGHT       FAIR      34  21  60 SW13G24   30.42F WCI  25
WILKERSON PASS FAIR      37  12  35 W7        30.37F
$$

COZ069>075-240300-
...SAN LUIS VALLEY/SANGRE DE CRISTO MOUNTAINS...

CITY           SKY/WX    TMP DP  RH WIND       PRES   REMARKS
ALAMOSA        FAIR      40  24  53 CALM      30.25S
DEL NORTE      FAIR      38  25  60 W10       30.28F
LA VETA PASS   FAIR      41  18  38 SW22G31     N/A
SAGUACHE       FAIR      36  23  60 N3        30.29S
$$

COZ035-036-038>040-240300-
...NORTHERN COLORADO FRONT RANGE...

CITY           SKY/WX    TMP DP  RH WIND       PRES   REMARKS
DENVER INTL AP MOCLDY    62  18  18 W3        29.99F
DMNS CITY PARK   N/A     57  23  27 SE12      29.99F
AURORA         MOCLDY    54  23  29 S7        30.01S
FRONT RANGE AP MOCLDY    63  21  20 SW9       30.00F
ERIE MUNI ARPT FAIR      56  22  26 S5        30.02F
BOULDER MUN AP FAIR      63  23  22 NE5       29.97F
CENTENNIAL     CLOUDY    51  29  42 SE9       30.02F
BROOMFIELD     MOCLDY    66  19  16 W12G23    30.01F
FORT COLLINS   FAIR      52  36  54 NE6       29.96F
LONGMONT       FAIR      63  28  26 CALM      29.99F
$$

COZ041-046-047-076>085-087-088-240300-
...PIKES PEAK/PALMER DIVIDE AND SOUTHERN FOOTHILLS...

CITY           SKY/WX    TMP DP  RH WIND       PRES   REMARKS
COLO. SPRINGS  MOCLDY    52  29  41 NE5       30.08F
A. F. ACADEMY  FAIR      48  28  45 NE6       30.09S
SCHRIEVER AFB  FAIR      53  27  37 S6        30.08F
CHEYENNE MTN   MOCLDY    54  25  32 CALM      30.06F
ELLICOTT         N/A    N/A N/A N/A CALM      30.06F
FALCON         FAIR      49  27  43 SW7       30.12S
FORT CARSON    FAIR      49  30  48 NW10      30.05F
LIMON          FAIR      39  29  67 N8        30.01F
MONUMENT HILL  FAIR      48  28  46 SW12      30.10F
CANON CITY     FAIR      63  25  23 W7        30.04S
WALSENBURG     FAIR      61  21  21 W14       30.08S
TRINIDAD       FAIR      49  34  56 SW12      30.07F
$$

COZ042>045-048>051-090-091-240300-
...NORTHEAST COLORADO...

CITY           SKY/WX    TMP DP  RH WIND       PRES   REMARKS
GREELEY ARPT   FAIR      46  33  60 CALM      29.94F
AKRON          FAIR      54  26  34 S9        29.94F
BURLINGTON     FAIR      50  35  56 SW9       29.95F
WRAY           NOT AVBL
YUMA           FAIR      45  28  53 SW8       29.91F
STERLING       FAIR      50  32  50 W6        29.89F
HOLYOKE        FAIR      46  32  57 W7        29.88F
FORT MORGAN    FAIR      54  25  32 W3        29.93F
$$

COZ086-089-092>099-240300-
...SOUTHEAST COLORADO...

CITY           SKY/WX    TMP DP  RH WIND       PRES   REMARKS
PUEBLO         FAIR      52  31  44 CALM      30.00F
LA JUNTA       FAIR      55  35  47 SW6       29.98F
LAMAR          FAIR      47  32  56 SW5       29.94F
SPRINGFIELD      N/A     45  33  63 SW13      30.01F
$$




USA.gov is the U.S. government's official web portal to all federal, state and local government web resources and services.